Terminal Aerodrome Forecast
Issued by NWS Mt. Holly, NJ

Home | Current Version | Previous Version | Text Only | Print | Product List | Glossary On
Versions: 1 2 3 4 5 6 7 8 9 10 11 12 13 14 15 16 17 18 19 20 21 22 23 24 25 26 27 28 29 30 31 32 33 34 35 36 37 38 39 40 41 42 43 44 45 46 47 48 49 50
000
FTAK31 PANC 270202 AAC
TAFABE
TAF AMD
PABE 270202Z 2702/2724 06005KT 6SM -SN SCT015 OVC025
      TEMPO 2702/2706 3SM -SN BKN015
     FM270600 14015KT P6SM SCT035 BKN100
     FM271200 13015KT P6SM SCT100 BKN200=

USA.gov is the U.S. government's official web portal to all federal, state and local government web resources and services.